Goteborg, Sweden

12:09 AM CEST on June 25, 2018 (GMT +0200)
Landvetter

Weather History for ESGG - October, 2017

Change the Weather History Date:

Thursday, October 12, 2017

  Actual Average Record
Temperature  
Mean Temperature 52 °F -  
Max Temperature 54 °F - - ()
Min Temperature 49 °F - - ()
Degree Days  
Heating Degree Days 14    
Growing Degree Days 2 (Base 50)    
Moisture  
Dew Point 47 °F    
Average Humidity 84    
Maximum Humidity 100    
Minimum Humidity 60    
Precipitation  
Precipitation 0.00 in - - ()
Sea Level Pressure  
Sea Level Pressure 29.50 in    
Wind  
Wind Speed 17 mph ()    
Max Wind Speed 24 mph    
Max Gust Speed 40 mph    
Visibility 6.6 miles    
Events Rain    
T = Trace of Precipitation, MM = Missing Value Source: Averaged Metar Reports

Daily Weather History Graph

Daily Weather History Graph

Search for Another Location

Airport or City:

Astronomy

Oct. 12, 2017 Rise Set
Actual Time 7:38 AM CEST 6:14 PM CEST
Civil Twilight 6:59 AM CEST 6:53 PM CEST
Nautical Twilight 6:14 AM CEST 7:38 PM CEST
Astronomical Twilight 5:28 AM CEST 8:24 PM CEST
Moon 11:18 PM CEST (10/12) 3:21 PM CEST (10/12)
Length of Visible Light 11h 54m
Length of Day
10h 35m
Waning Gibbous, 51% of the Moon is Illuminated
Oct 12
Waning Gibbous
Oct 12
Last Quarter
Oct 19
New
Oct 28
First Quarter
Nov 4
Full

Hourly Weather History & Observations

Time (CEST) Temp. Dew Point Humidity Pressure Visibility Wind Dir Wind Speed Gust Speed Precip Events Conditions
12:00 AM 54 °F 53 °F 94% 29.56 in 8 mi SW 17.9 mph - - Rain Light Rain Showers
12:20 AM 53.6 °F 53.6 °F 100% 29.53 in 5.6 mi SW 18.4 mph - N/A Rain Light Rain
12:50 AM 53.6 °F 53.6 °F 100% 29.53 in 6.2 mi SW 21.9 mph - N/A Rain Light Rain
1:00 AM 53 °F 52 °F 97% 29.54 in 9 mi SW 20.1 mph - - Rain Light Rain Showers
1:20 AM 53.6 °F 51.8 °F 94% 29.50 in 6.2 mi SSW 19.6 mph - N/A Rain Light Rain
2:00 AM 53 °F 52 °F 96% 29.52 in 11 mi SSW 20.1 mph - - Rain Light Rain Showers
2:20 AM 53.6 °F 51.8 °F 94% 29.50 in 6.2 mi SSW 20.7 mph - N/A   Overcast
2:50 AM 53.6 °F 51.8 °F 94% 29.47 in 6.2 mi SSW 19.6 mph - N/A   Overcast
3:00 AM 53 °F 52 °F 94% 29.49 in 6 mi SSW 17.9 mph - - Rain Light Rain Showers
3:20 AM 53.6 °F 51.8 °F 94% 29.47 in 6.2 mi SSW 19.6 mph - N/A Rain Light Rain
3:50 AM 53.6 °F 51.8 °F 94% 29.44 in 5.6 mi SSW 19.6 mph - N/A Rain Light Rain
4:20 AM 53.6 °F 51.8 °F 94% 29.42 in 4.3 mi SSW 23.0 mph - N/A Rain Light Rain
4:50 AM 53.6 °F 51.8 °F 94% 29.42 in 6.2 mi SSW 23.0 mph - N/A Rain Light Rain
5:00 AM 53 °F 52 °F 95% 29.41 in 3 mi SSW 22.4 mph - - Rain Light Rain
5:20 AM 51.8 °F 51.8 °F 100% 29.39 in 4.3 mi SSW 20.7 mph - N/A Rain Light Rain
5:50 AM 51.8 °F 51.8 °F 100% 29.36 in 3.7 mi SSW 19.6 mph - N/A Rain Light Rain
6:20 AM 51.8 °F 51.8 °F 100% 29.36 in 2.5 mi SSW 20.7 mph - N/A Rain Light Rain
6:50 AM 51.8 °F 51.8 °F 100% 29.36 in 5.0 mi SW 19.6 mph - N/A Rain Rain
7:00 AM 52 °F 51 °F 96% 29.37 in 6 mi WSW 15.7 mph - - Rain Light Rain
7:20 AM 51.8 °F 51.8 °F 100% 29.36 in 6.2 mi SW 10.4 mph - N/A Rain Light Rain
7:50 AM 51.8 °F 51.8 °F 100% 29.36 in 5.0 mi SW 10.4 mph - N/A Rain Rain
8:00 AM 52 °F 51 °F 95% 29.37 in 13 mi SW 13.4 mph - - Rain Light Rain
8:20 AM 51.8 °F 50.0 °F 94% 29.36 in 6.2 mi SW 11.5 mph - N/A   Light Drizzle
8:50 AM 51.8 °F 50.0 °F 94% 29.36 in 6.2 mi SW 17.3 mph - N/A   Overcast
9:00 AM 51 °F 50 °F 95% 29.37 in 3 mi SW 15.7 mph - - Rain Light Rain Showers
9:20 AM 51.8 °F 50.0 °F 94% 29.36 in 6.2 mi SW 19.6 mph - N/A   Overcast
9:50 AM 50.0 °F 50.0 °F 100% 29.36 in - SW 18.4 mph - N/A Rain Rain
10:50 AM 51.8 °F 50.0 °F 94% 29.36 in 6.2 mi WSW 13.8 mph - N/A   Mostly Cloudy
11:00 AM 51 °F 49 °F 91% 29.39 in 16 mi West 13.4 mph - -   Mostly Cloudy
11:20 AM 51.8 °F 48.2 °F 88% 29.39 in 6.2 mi WSW 15.0 mph - N/A Rain Light Rain Showers
11:50 AM 50.0 °F 46.4 °F 87% 29.39 in 6.2 mi West 16.1 mph - N/A   Overcast
12:00 PM 51 °F 46 °F 77% 29.42 in 5 mi West 13.4 mph - - Rain Drizzle
12:20 PM 51.8 °F 46.4 °F 82% 29.42 in 6.2 mi West 15.0 mph - N/A   Mostly Cloudy
12:50 PM 53.6 °F 46.4 °F 77% 29.42 in 6.2 mi West 18.4 mph 31.1 mph N/A   Mostly Cloudy
1:00 PM 51 °F 45 °F 74% 29.45 in 31 mi West 17.9 mph - -   Mostly Cloudy
1:20 PM 51.8 °F 46.4 °F 82% 29.44 in 6.2 mi West 20.7 mph 35.7 mph N/A   Mostly Cloudy
1:50 PM 51.8 °F 44.6 °F 76% 29.44 in 6.2 mi West 19.6 mph 32.2 mph N/A   Overcast
2:00 PM 53 °F 45 °F 65% 29.48 in 28 mi West 20.1 mph - -   Mostly Cloudy
2:20 PM 53.6 °F 44.6 °F 72% 29.47 in 6.2 mi West 23.0 mph 34.5 mph N/A   Mostly Cloudy
3:20 PM 51.8 °F 42.8 °F 71% 29.50 in 6.2 mi West 23.0 mph - N/A   Overcast
3:50 PM 51.8 °F 42.8 °F 71% 29.53 in 6.2 mi West 21.9 mph - N/A   Overcast
4:20 PM 51.8 °F 41.0 °F 67% 29.53 in 6.2 mi West 24.2 mph 40.3 mph N/A   Overcast
4:50 PM 51.8 °F 41.0 °F 67% 29.56 in 6.2 mi West 23.0 mph 34.5 mph N/A   Mostly Cloudy
5:00 PM 52 °F 42 °F 60% 29.57 in 19 mi West 22.4 mph - -   Mostly Cloudy
5:20 PM 51.8 °F 42.8 °F 71% 29.56 in 6.2 mi West 23.0 mph 35.7 mph N/A   Mostly Cloudy
6:00 PM 50 °F 43 °F 68% 29.61 in 22 mi West 17.9 mph - -   Overcast
6:50 PM 50.0 °F 41.0 °F 71% 29.62 in 6.2 mi West 20.7 mph 35.7 mph N/A   Scattered Clouds
7:00 PM 49 °F 42 °F 68% 29.64 in 25 mi West 15.7 mph - -   Overcast
7:20 PM 50.0 °F 41.0 °F 71% 29.62 in 6.2 mi West 16.1 mph - N/A   Scattered Clouds
7:50 PM 50.0 °F 41.0 °F 71% 29.65 in 6.2 mi West 17.3 mph 29.9 mph N/A   Mostly Cloudy
8:20 PM 50.0 °F 41.0 °F 71% 29.65 in 6.2 mi West 18.4 mph - N/A   Mostly Cloudy
8:50 PM 50.0 °F 41.0 °F 71% 29.68 in 6.2 mi West 15.0 mph - N/A   Partly Cloudy
9:00 PM 49 °F 42 °F 67% 29.70 in 25 mi West 13.4 mph - -   Scattered Clouds
9:50 PM 50.0 °F 41.0 °F 71% 29.71 in - West 16.1 mph - N/A   Clear
10:00 PM 49 °F 42 °F 68% 29.73 in 31 mi WNW 13.4 mph - -  
10:20 PM 50.0 °F 41.0 °F 71% 29.71 in - West 17.3 mph - N/A   Clear
10:50 PM 50.0 °F 41.0 °F 71% 29.74 in - WNW 15.0 mph - N/A   Clear
11:20 PM 50.0 °F 41.0 °F 71% 29.74 in - WNW 13.8 mph - N/A   Clear
11:50 PM 50.0 °F 41.0 °F 71% 29.77 in - WNW 13.8 mph - N/A   Clear